Regional Weather Roundup
Issued by NWS

Home | Current Version | Previous Version | Text Only | Print | Product List | Glossary On
Versions: 1 2 3 4 5 6 7 8 9 10 11 12 13 14 15 16 17 18 19 20 21 22 23 24 25 26 27
000
ASUS45 KPSR 270210
RWRAZ

ARIZONA HOURLY REGIONAL WEATHER ROUNDUP
NATIONAL WEATHER SERVICE PHOENIX AZ
700 PM MST TUE JUL 26 2016

NOTE: FAIR INDICATES FEW OR NO CLOUDS BELOW 12,000 FEET WITH NO
SIGNIFICANT WEATHER AND/OR OBSTRUCTIONS TO VISIBILITY.

AZZ001>003-036-270300-
NORTHWEST ARIZONA

CITY           SKY/WX    TMP DP  RH WIND       PRES   REMARKS
BULLHEAD CITY  CLEAR    113  48  11 SW6       29.66R HX 109
KINGMAN        PTCLDY   100  46  16 SW10      29.93R
$$

AZZ004>008-015-016-018-270300-
NORTH CENTRAL ARIZONA

CITY           SKY/WX    TMP DP  RH WIND       PRES   REMARKS
GRAND CANYON   PTCLDY    82  45  27 VRB5      30.26R
WILLIAMS       CLEAR     81  52  36 NW5       30.32S
PRESCOTT       PTCLDY    90  49  24 NW5       30.10R
FLAGSTAFF      PTCLDY    74  55  51 CALM      30.27S
PAYSON         CLEAR     88  48  25 N6        30.13R
PAGE           CLEAR     95  41  15 SW7       30.00S
$$

AZZ009>014-017-270300-
NORTHEAST ARIZONA

CITY           SKY/WX    TMP DP  RH WIND       PRES   REMARKS
WINSLOW        CLEAR     89  48  24 W5        30.08S
SAINT JOHNS    PTCLDY    78  56  46 SW6       30.16S
WINDOW ROCK    MOCLDY    82  48  30 CALM      30.25R
SHOW LOW       PTCLDY    75  48  38 CALM      30.23S
$$

AZZ023-270300-
GREATER PHOENIX AREA

CITY           SKY/WX    TMP DP  RH WIND       PRES   REMARKS
PHOENIX        PTCLDY   108  57  18 W7        29.70R HX 108
BUCKEYE        CLEAR    108  54  16 W10G21    29.72R HX 106
GLENDALE       PTCLDY   109  55  17 S10       29.72R HX 108
LUKE AFB       CLEAR    108  58  19 W3        29.70R HX 108
DEER VALLEY    CLEAR    107  54  17 W9        29.73R HX 105
SCOTTSDALE     CLEAR    107  54  17 SW9       29.75R HX 105
MESA-GATEWAY   PTCLDY   106  55  18 W7        29.74S HX 105
CHANDLER       PTCLDY   108  55  18 W9        29.73R HX 106
$$

AZZ027-028-270300-
SOUTHWEST MARICOPA COUNTY AND PINAL COUNTY

CITY           SKY/WX    TMP DP  RH WIND       PRES   REMARKS
CASA GRANDE    CLEAR    106  55  18 NW8       29.78R HX 105
GILA BEND      PTCLDY   108  56  17 W9        29.70R HX 107
$$

AZZ503-504-507>509-270300-
SOUTHEAST ARIZONA

CITY           SKY/WX    TMP DP  RH WIND       PRES   REMARKS
TUCSON         MOCLDY   101  54  20 NW13G22   29.87R
DAVIS-MONTHAN  MOCLDY    99  59  26 NE17G25   29.87R
RYAN FIELD     CLEAR    100  54  20 NW13      29.85R
NOGALES        CLOUDY    79  63  57 SE6       30.01F
SIERRA VISTA   MOCLDY    86  57  37 NW13      30.08R
DOUGLAS        MOCLDY    88  64  44 CALM      29.99F
SAFFORD        MOCLDY    95  54  25 E16G25    29.88R
$$

AZZ020-021-025-026-031-270300-
SOUTHWEST ARIZONA

CITY           SKY/WX    TMP DP  RH WIND       PRES   REMARKS
YUMA           PTCLDY   107  61  22 S6        29.68R HX 109
$$

CAZ031-033-041-043-047-048-061-270300-
SOUTHERN CALIFORNIA

CITY           SKY/WX    TMP DP  RH WIND       PRES   REMARKS
DOWNTOWN L.A.  SUNNY     80  54  40 W5        29.83R
L.A. AIRPORT   MOSUNNY   73  66  78 W14       29.84R
SAN DIEGO      PTCLDY    74  65  73 W8        29.87R
BURBANK        SUNNY     88  50  27 SE9       29.83S
ONTARIO        PTCLDY    90  40  17 W13       29.84R
RIVERSIDE      CLEAR     91  47  21 W12       29.83R
PALM SPRINGS   CLEAR    110  54  15 NE7       29.70S HX 108
EL CENTRO NAS  PTCLDY   109  57  18 SE6       29.67R HX 109
IMPERIAL       CLEAR    111  62  20 SE8       29.64S HX 114
BLYTHE         CLEAR    110  57  17 SW8       29.67S HX 110
NEEDLES        MOCLDY   114  50  12 VRB3      29.68S HX 111
$$

NVZ020-UTZ003-270300-
SOUTHERN NEVADA-UTAH

CITY           SKY/WX    TMP DP  RH WIND       PRES   REMARKS
LAS VEGAS      PTCLDY   109  38   9 E7        29.75R HX 102
SALT LAKE CITY PTCLDY    98  22   6 NE7       29.97F
$$

NMZ009-TXZ055-270300-
NEW MEXICO-WEST TEXAS

CITY           SKY/WX    TMP DP  RH WIND       PRES   REMARKS
ALBUQUERQUE    CLOUDY    87  50  27 N16       30.11R
EL PASO        MOCLDY    90  52  27 E12       29.99R
$$


........................KEY........................
SKY/WX - SKY CONDITION/WEATHER
TMP    - TEMPERATURE IN FAHRENHEIT
DP     - DEW POINT IN FAHRENHEIT
RH     - RELATIVE HUMIDITY IN PERCENT
WIND   - DIRECTION AND SPEED IN MILES PER HOUR (MPH)
VRB    - VARIABLE WIND DIRECTION
PRES   - MEAN SEA LEVEL PRESSURE IN INCHES OF MERCURY
         F - FALLING PRESSURE   R - RISING PRESSURE
         S - STEADY PRESSURE
VSB    - VISIBILITY IN MILES
HX     - HEAT INDEX IN FAHRENHEIT
WCI    - WIND CHILL INDEX IN FAHRENHEIT
TC     - TEMPERATURE IN CELSIUS WHICH IS ALSO KNOWN AS
         TEMPERATURE IN CENTIGRADE
AFB    - AIR FORCE BASE
         LUKE AFB IS LUKE AIR FORCE BASE
         DAVIS-MONTHAN IS DAVIS-MONTHAN AIR FORCE BASE
NAS    - NAVAL AIR STATION
         EL CENTRO NAS IS EL CENTRO NAVAL AIR STATION
N/A    - NOT AVAILABLE





USA.gov is the U.S. government's official web portal to all federal, state and local government web resources and services.